Location: Pic du Midi - T1M
(42.9366°N, 0.1426°E)
Time: 03:38:23
(UTC+01:00)

AO-7 - Visible Passes

Search period start: 26 September 2021 00:00
Search period end: 06 October 2021 00:00
Orbit: 1440 x 1458 km, 101.9° (Epoch: 25 September)

Date Brightness Start Highest point End Pass type
(mag) Time Alt. Az. Time Alt. Az. Time Alt. Az.
26 Sep ? 04:09:36 10° NE 04:16:45 31° E 04:23:50 10° SSE visible
26 Sep ? 06:01:46 10° NNE 06:09:55 62° WNW 06:18:00 10° SW visible
27 Sep ? 03:13:40 10° ENE 03:15:46 11° E 03:17:50 10° E visible
27 Sep ? 05:01:47 10° NNE 05:10:04 64° ESE 05:18:15 10° S visible
28 Sep ? 04:02:45 10° NE 04:09:38 28° E 04:16:26 10° SSE visible
28 Sep ? 05:54:41 10° NNE 06:02:55 67° WNW 06:11:05 10° SSW visible
29 Sep ? 04:54:48 10° NNE 05:03:00 59° ESE 05:11:06 10° S visible
30 Sep ? 03:55:57 10° NE 04:02:30 25° E 04:08:58 10° SE visible
30 Sep ? 05:47:38 10° NNE 05:55:55 74° WNW 06:04:08 10° SSW visible
01 Oct ? 04:47:50 10° NNE 04:55:56 53° ESE 05:03:56 10° S visible
02 Oct ? 03:49:11 10° NE 03:55:21 22° E 04:01:28 10° SE visible
02 Oct ? 05:40:35 10° NNE 05:48:54 80° WNW 05:57:10 10° SSW visible
03 Oct ? 04:40:52 10° NNE 04:48:51 48° E 04:56:44 10° S visible
04 Oct ? 03:42:28 10° NE 03:48:11 20° E 03:53:52 10° SE visible
04 Oct ? 05:33:32 10° NNE 05:41:53 87° WNW 05:50:10 10° SSW visible
05 Oct ? 04:33:55 10° NNE 04:41:45 44° E 04:49:31 10° S visible
05 Oct ? 06:26:44 10° N 06:34:29 46° WNW 06:42:12 10° SW visible
